Time,TemperatureF,DewpointF,PressureIn,WindDirection,WindDirectionDegrees,WindSpeedMPH,WindSpeedGustMPH,Humidity,HourlyPrecipIn,Conditions,Clouds,dailyrainin,SoftwareType,DateUTC
2013-01-09 00:02:00,68.2,67.8,30.24,North,0,0.0,0.0,99,0.00,,,0.00,meteohub,2013-01-09 05:02:00,
2013-01-09 00:03:00,68.2,67.8,30.24,North,0,0.0,0.0,99,0.00,,,0.00,meteohub,2013-01-09 05:03:00,
2013-01-09 00:04:00,68.2,67.8,30.24,North,0,0.0,0.0,99,0.00,,,0.00,meteohub,2013-01-09 05:04:00,
2013-01-09 00:09:00,68.2,67.8,30.24,North,0,0.0,0.0,99,0.00,,,0.00,meteohub,2013-01-09 05:09:00,
2013-01-09 00:14:00,68.2,67.8,30.23,NW,315,2.0,0.0,99,0.00,,,0.00,meteohub,2013-01-09 05:14:00,
2013-01-09 00:19:00,68.2,67.8,30.24,North,0,0.0,2.0,99,0.00,,,0.00,meteohub,2013-01-09 05:19:00,
2013-01-09 00:24:00,68.2,67.8,30.24,North,0,0.0,2.0,99,0.00,,,0.00,meteohub,2013-01-09 05:24:00,
2013-01-09 00:29:00,68.2,67.8,30.23,NW,315,0.0,2.0,99,0.00,,,0.00,meteohub,2013-01-09 05:29:00,
2013-01-09 00:34:00,68.4,68.0,30.24,North,0,0.0,1.0,99,0.00,,,0.00,meteohub,2013-01-09 05:34:00,
2013-01-09 00:39:00,68.4,68.0,30.24,North,0,0.0,0.0,99,0.00,,,0.00,meteohub,2013-01-09 05:39:00,
2013-01-09 00:44:00,68.4,68.0,30.24,SW,225,0.0,0.0,99,0.00,,,0.00,meteohub,2013-01-09 05:44:00,
2013-01-09 00:49:00,68.4,68.0,30.23,North,0,0.0,0.0,99,0.00,,,0.00,meteohub,2013-01-09 05:49:00,
2013-01-09 00:54:00,68.4,68.0,30.24,North,0,2.0,0.0,99,0.00,,,0.00,meteohub,2013-01-09 05:54:00,
2013-01-09 01:00:00,68.4,68.0,30.24,North,0,2.0,2.0,99,0.00,,,0.00,meteohub,2013-01-09 06:00:00,
2013-01-09 01:05:00,68.4,68.0,30.24,NE,45,0.0,2.0,99,0.00,,,0.00,meteohub,2013-01-09 06:05:00,
2013-01-09 01:10:00,68.4,68.0,30.23,NW,315,0.0,2.0,99,0.00,,,0.00,meteohub,2013-01-09 06:10:00,
2013-01-09 01:15:00,68.2,67.8,30.24,North,0,1.0,2.0,99,0.00,,,0.00,meteohub,2013-01-09 06:15:00,
2013-01-09 01:20:00,68.2,67.8,30.24,NE,45,0.0,2.0,99,0.00,,,0.00,meteohub,2013-01-09 06:20:00,
2013-01-09 01:25:00,68.0,67.6,30.24,NE,45,1.0,2.0,99,0.00,,,0.00,meteohub,2013-01-09 06:25:00,
2013-01-09 01:30:00,68.0,67.6,30.23,NE,45,0.0,2.0,99,0.00,,,0.00,meteohub,2013-01-09 06:30:00,
2013-01-09 01:35:00,68.0,67.6,30.24,NE,45,0.0,1.0,99,0.00,,,0.00,meteohub,2013-01-09 06:35:00,
2013-01-09 01:40:00,68.0,67.6,30.24,North,0,1.0,1.0,99,0.00,,,0.00,meteohub,2013-01-09 06:40:00,
2013-01-09 01:45:00,68.0,67.6,30.24,NE,45,0.0,1.0,99,0.00,,,0.00,meteohub,2013-01-09 06:45:00,
2013-01-09 01:50:00,67.8,67.5,30.24,NE,45,0.0,1.0,99,0.00,,,0.00,meteohub,2013-01-09 06:50:00,
2013-01-09 01:55:00,67.8,67.5,30.23,North,0,0.0,1.0,99,0.00,,,0.00,meteohub,2013-01-09 06:55:00,
2013-01-09 02:00:00,67.6,67.3,30.24,North,0,0.0,1.0,99,0.00,,,0.00,meteohub,2013-01-09 07:00:00,
2013-01-09 02:05:00,67.6,67.3,30.24,North,0,0.0,1.0,99,0.00,,,0.00,meteohub,2013-01-09 07:05:00,
2013-01-09 02:10:00,67.6,67.3,30.24,North,0,0.0,1.0,99,0.00,,,0.00,meteohub,2013-01-09 07:10:00,
2013-01-09 02:15:00,67.6,67.3,30.24,North,0,0.0,1.0,99,0.00,,,0.00,meteohub,2013-01-09 07:15:00,
2013-01-09 02:20:00,67.6,67.3,30.24,North,0,1.0,1.0,99,0.00,,,0.00,meteohub,2013-01-09 07:20:00,
2013-01-09 02:25:00,67.6,67.3,30.24,North,0,0.0,1.0,99,0.00,,,0.00,meteohub,2013-01-09 07:25:00,
2013-01-09 02:30:00,67.6,67.3,30.24,SW,225,0.0,1.0,99,0.00,,,0.00,meteohub,2013-01-09 07:30:00,
2013-01-09 02:35:00,67.6,67.3,30.24,East,90,0.0,1.0,99,0.00,,,0.00,meteohub,2013-01-09 07:35:00,
2013-01-09 02:40:00,67.6,67.3,30.23,North,0,0.0,0.0,99,0.00,,,0.00,meteohub,2013-01-09 07:40:00,
2013-01-09 02:45:00,67.6,67.3,30.23,NE,45,0.0,0.0,99,0.00,,,0.00,meteohub,2013-01-09 07:45:00,
2013-01-09 02:50:00,67.6,67.3,30.23,NE,45,0.0,0.0,99,0.00,,,0.00,meteohub,2013-01-09 07:50:00,
2013-01-09 02:56:00,67.5,67.1,30.23,North,0,0.0,0.0,99,0.00,,,0.00,meteohub,2013-01-09 07:56:00,
2013-01-09 03:01:00,67.5,67.1,30.23,North,0,0.0,0.0,99,0.00,,,0.00,meteohub,2013-01-09 08:01:00,
2013-01-09 03:06:00,67.5,67.1,30.23,South,180,0.0,0.0,99,0.00,,,0.00,meteohub,2013-01-09 08:06:00,
2013-01-09 03:11:00,67.5,67.1,30.23,North,0,0.0,0.0,99,0.00,,,0.00,meteohub,2013-01-09 08:11:00,
2013-01-09 03:16:00,67.3,66.9,30.23,South,180,0.0,0.0,99,0.00,,,0.00,meteohub,2013-01-09 08:16:00,
2013-01-09 03:21:00,67.3,66.9,30.23,North,0,0.0,0.0,99,0.00,,,0.00,meteohub,2013-01-09 08:21:00,
2013-01-09 03:26:00,67.1,66.7,30.23,South,180,0.0,0.0,99,0.00,,,0.00,meteohub,2013-01-09 08:26:00,
2013-01-09 03:31:00,67.1,66.7,30.24,North,0,0.0,0.0,99,0.00,,,0.00,meteohub,2013-01-09 08:31:00,
2013-01-09 03:36:00,66.9,66.6,30.23,North,0,0.0,0.0,99,0.00,,,0.00,meteohub,2013-01-09 08:36:00,
2013-01-09 03:41:00,66.9,66.6,30.23,North,0,0.0,0.0,99,0.00,,,0.00,meteohub,2013-01-09 08:41:00,
2013-01-09 03:46:00,66.9,66.6,30.23,West,270,0.0,0.0,99,0.00,,,0.00,meteohub,2013-01-09 08:46:00,
2013-01-09 03:51:00,66.7,66.4,30.23,North,0,0.0,0.0,99,0.00,,,0.00,meteohub,2013-01-09 08:51:00,
2013-01-09 03:56:00,66.7,66.4,30.23,SW,225,0.0,0.0,99,0.00,,,0.00,meteohub,2013-01-09 08:56:00,
2013-01-09 04:01:00,66.7,66.4,30.23,SW,225,0.0,0.0,99,0.00,,,0.00,meteohub,2013-01-09 09:01:00,
2013-01-09 04:06:00,66.7,66.4,30.24,NW,315,0.0,0.0,99,0.00,,,0.00,meteohub,2013-01-09 09:06:00,
2013-01-09 04:11:00,66.7,66.4,30.23,NW,315,0.0,0.0,99,0.00,,,0.00,meteohub,2013-01-09 09:11:00,
2013-01-09 04:16:00,66.7,66.4,30.23,NW,315,0.0,0.0,99,0.00,,,0.00,meteohub,2013-01-09 09:16:00,
2013-01-09 04:21:00,66.7,66.4,30.23,NW,315,0.0,0.0,99,0.00,,,0.00,meteohub,2013-01-09 09:21:00,
2013-01-09 04:26:00,66.7,66.4,30.23,NW,315,0.0,0.0,99,0.00,,,0.00,meteohub,2013-01-09 09:26:00,
2013-01-09 04:31:00,66.7,66.4,30.23,NW,315,0.0,0.0,99,0.00,,,0.00,meteohub,2013-01-09 09:31:00,
2013-01-09 04:36:00,66.7,66.4,30.23,NW,315,0.0,0.0,99,0.00,,,0.00,meteohub,2013-01-09 09:36:00,
2013-01-09 04:41:00,66.7,66.4,30.23,North,0,0.0,0.0,99,0.00,,,0.00,meteohub,2013-01-09 09:41:00,
2013-01-09 04:46:00,66.7,66.4,30.23,North,0,0.0,0.0,99,0.00,,,0.00,meteohub,2013-01-09 09:46:00,
2013-01-09 04:51:00,66.9,66.6,30.23,North,0,0.0,0.0,99,0.00,,,0.00,meteohub,2013-01-09 09:51:00,
2013-01-09 04:57:00,66.9,66.6,30.23,North,0,0.0,0.0,99,0.00,,,0.00,meteohub,2013-01-09 09:57:00,
2013-01-09 05:02:00,66.9,66.6,30.23,SE,135,1.0,2.0,99,0.00,,,0.00,meteohub,2013-01-09 10:02:00,
2013-01-09 05:07:00,66.9,66.6,30.23,East,90,0.0,2.0,99,0.00,,,0.00,meteohub,2013-01-09 10:07:00,
2013-01-09 05:12:00,66.9,66.6,30.23,East,90,0.0,2.0,99,0.00,,,0.00,meteohub,2013-01-09 10:12:00,
2013-01-09 05:17:00,66.9,66.6,30.23,East,90,0.0,1.0,99,0.00,,,0.00,meteohub,2013-01-09 10:17:00,
2013-01-09 05:22:00,66.9,66.6,30.24,East,90,0.0,1.0,99,0.00,,,0.00,meteohub,2013-01-09 10:22:00,
2013-01-09 05:27:00,66.9,66.6,30.23,East,90,0.0,0.0,99,0.00,,,0.00,meteohub,2013-01-09 10:27:00,
2013-01-09 05:32:00,66.9,66.6,30.23,East,90,0.0,0.0,99,0.00,,,0.00,meteohub,2013-01-09 10:32:00,
2013-01-09 05:37:00,66.9,66.6,30.24,East,90,0.0,0.0,99,0.00,,,0.00,meteohub,2013-01-09 10:37:00,
2013-01-09 05:42:00,66.9,66.6,30.24,East,90,0.0,0.0,99,0.00,,,0.00,meteohub,2013-01-09 10:42:00,
2013-01-09 05:47:00,66.9,66.6,30.24,East,90,0.0,0.0,99,0.00,,,0.00,meteohub,2013-01-09 10:47:00,
2013-01-09 05:52:00,66.9,66.6,30.24,East,90,0.0,0.0,99,0.00,,,0.00,meteohub,2013-01-09 10:52:00,
2013-01-09 05:57:00,66.9,66.6,30.24,North,0,0.0,0.0,99,0.00,,,0.00,meteohub,2013-01-09 10:57:00,
2013-01-09 06:02:00,66.9,66.6,30.25,NE,45,0.0,0.0,99,0.00,,,0.00,meteohub,2013-01-09 11:02:00,
2013-01-09 06:07:00,66.9,66.6,30.24,NE,45,0.0,0.0,99,0.00,,,0.00,meteohub,2013-01-09 11:07:00,
2013-01-09 06:12:00,67.1,66.7,30.24,NE,45,0.0,0.0,99,0.00,,,0.00,meteohub,2013-01-09 11:12:00,
2013-01-09 06:17:00,67.1,66.7,30.25,North,0,0.0,0.0,99,0.00,,,0.00,meteohub,2013-01-09 11:17:00,
2013-01-09 06:22:00,66.9,66.6,30.25,North,0,0.0,0.0,99,0.00,,,0.00,meteohub,2013-01-09 11:22:00,
2013-01-09 06:27:00,66.9,66.6,30.25,North,0,0.0,0.0,99,0.00,,,0.00,meteohub,2013-01-09 11:27:00,
2013-01-09 06:32:00,66.9,66.6,30.25,North,0,0.0,0.0,99,0.00,,,0.00,meteohub,2013-01-09 11:32:00,
2013-01-09 06:37:00,66.9,66.6,30.25,North,0,0.0,0.0,99,0.00,,,0.00,meteohub,2013-01-09 11:37:00,
2013-01-09 06:42:00,66.9,66.6,30.25,North,0,0.0,0.0,99,0.00,,,0.00,meteohub,2013-01-09 11:42:00,
2013-01-09 06:47:00,66.7,66.4,30.26,North,0,0.0,0.0,99,0.00,,,0.00,meteohub,2013-01-09 11:47:00,
2013-01-09 06:52:00,66.7,66.4,30.26,North,0,0.0,0.0,99,0.00,,,0.00,meteohub,2013-01-09 11:52:00,
2013-01-09 06:57:00,66.7,66.4,30.26,NE,45,0.0,1.0,99,0.00,,,0.00,meteohub,2013-01-09 11:57:00,
2013-01-09 07:02:00,66.9,66.6,30.26,East,90,0.0,2.0,99,0.00,,,0.00,meteohub,2013-01-09 12:02:00,
2013-01-09 07:07:00,66.9,66.6,30.26,North,0,0.0,2.0,99,0.00,,,0.00,meteohub,2013-01-09 12:07:00,
2013-01-09 07:12:00,66.9,66.6,30.26,North,0,0.0,2.0,99,0.00,,,0.00,meteohub,2013-01-09 12:12:00,
2013-01-09 07:17:00,66.9,66.6,30.26,NE,45,1.0,2.0,99,0.00,,,0.00,meteohub,2013-01-09 12:17:00,
2013-01-09 07:22:00,66.9,66.6,30.26,NE,45,2.0,2.0,99,0.00,,,0.00,meteohub,2013-01-09 12:22:00,
2013-01-09 07:27:00,66.9,66.6,30.27,North,0,1.0,2.0,99,0.00,,,0.00,meteohub,2013-01-09 12:27:00,
2013-01-09 07:32:00,67.1,66.7,30.27,NE,45,0.0,2.0,99,0.00,,,0.00,meteohub,2013-01-09 12:32:00,
2013-01-09 07:37:00,67.1,66.7,30.27,North,0,0.0,2.0,99,0.00,,,0.00,meteohub,2013-01-09 12:37:00,
2013-01-09 07:42:00,67.3,66.9,30.27,NE,45,0.0,2.0,99,0.00,,,0.00,meteohub,2013-01-09 12:42:00,
2013-01-09 07:47:00,67.5,67.1,30.28,SE,135,0.0,1.0,99,0.00,,,0.00,meteohub,2013-01-09 12:47:00,
2013-01-09 07:52:00,67.6,67.3,30.28,SE,135,0.0,0.0,99,0.00,,,0.00,meteohub,2013-01-09 12:52:00,
2013-01-09 07:57:00,67.8,67.5,30.28,East,90,0.0,0.0,99,0.00,,,0.00,meteohub,2013-01-09 12:57:00,
2013-01-09 08:02:00,68.0,67.6,30.28,NE,45,0.0,0.0,99,0.00,,,0.00,meteohub,2013-01-09 13:02:00,
2013-01-09 08:07:00,68.0,67.6,30.29,NE,45,0.0,0.0,99,0.00,,,0.00,meteohub,2013-01-09 13:07:00,
2013-01-09 08:12:00,68.2,67.8,30.29,NE,45,0.0,0.0,99,0.00,,,0.00,meteohub,2013-01-09 13:12:00,
2013-01-09 08:17:00,68.2,67.8,30.28,NE,45,0.0,0.0,99,0.00,,,0.00,meteohub,2013-01-09 13:17:00,
2013-01-09 08:22:00,68.4,68.0,30.29,NE,45,0.0,0.0,99,0.00,,,0.00,meteohub,2013-01-09 13:22:00,
2013-01-09 08:28:00,68.5,68.2,30.30,East,90,0.0,0.0,99,0.00,,,0.00,meteohub,2013-01-09 13:28:00,
2013-01-09 08:33:00,68.7,68.4,30.30,SE,135,0.0,0.0,99,0.00,,,0.00,meteohub,2013-01-09 13:33:00,
2013-01-09 08:38:00,68.7,68.4,30.30,SE,135,0.0,0.0,99,0.00,,,0.00,meteohub,2013-01-09 13:38:00,
2013-01-09 08:43:00,68.9,68.5,30.30,SE,135,0.0,0.0,99,0.00,,,0.00,meteohub,2013-01-09 13:43:00,
2013-01-09 08:48:00,69.1,68.7,30.30,SE,135,0.0,0.0,99,0.00,,,0.00,meteohub,2013-01-09 13:48:00,
2013-01-09 08:53:00,69.3,68.9,30.30,East,90,0.0,0.0,99,0.00,,,0.00,meteohub,2013-01-09 13:53:00,
2013-01-09 08:58:00,69.4,69.1,30.31,East,90,0.0,0.0,99,0.00,,,0.00,meteohub,2013-01-09 13:58:00,
2013-01-09 09:03:00,70.2,69.6,30.31,NE,45,0.0,0.0,98,0.00,,,0.00,meteohub,2013-01-09 14:03:00,
2013-01-09 09:08:00,70.5,70.0,30.31,East,90,0.0,1.0,98,0.00,,,0.00,meteohub,2013-01-09 14:08:00,
2013-01-09 09:13:00,70.7,70.2,30.31,East,90,2.0,2.0,98,0.00,,,0.00,meteohub,2013-01-09 14:13:00,
2013-01-09 09:18:00,70.7,70.2,30.31,East,90,0.0,2.0,98,0.00,,,0.00,meteohub,2013-01-09 14:18:00,
2013-01-09 09:23:00,70.9,70.3,30.32,East,90,2.0,2.0,98,0.00,,,0.00,meteohub,2013-01-09 14:23:00,
2013-01-09 09:28:00,71.1,70.5,30.32,East,90,2.0,2.0,98,0.00,,,0.00,meteohub,2013-01-09 14:28:00,
2013-01-09 09:33:00,71.2,70.7,30.32,East,90,2.0,3.0,98,0.00,,,0.00,meteohub,2013-01-09 14:33:00,
2013-01-09 09:38:00,71.6,70.7,30.32,East,90,2.0,3.0,97,0.00,,,0.00,meteohub,2013-01-09 14:38:00,
2013-01-09 09:43:00,72.1,71.2,30.32,SE,135,2.0,3.0,97,0.00,,,0.00,meteohub,2013-01-09 14:43:00,
2013-01-09 09:48:00,72.5,71.6,30.32,SE,135,1.0,3.0,97,0.00,,,0.00,meteohub,2013-01-09 14:48:00,
2013-01-09 09:53:00,72.9,72.0,30.32,East,90,2.0,3.0,97,0.00,,,0.00,meteohub,2013-01-09 14:53:00,
2013-01-09 09:58:00,73.2,72.3,30.32,East,90,2.0,3.0,97,0.00,,,0.00,meteohub,2013-01-09 14:58:00,
2013-01-09 10:04:00,73.2,72.3,30.32,SE,135,3.0,3.0,97,0.00,,,0.00,meteohub,2013-01-09 15:04:00,
2013-01-09 10:09:00,73.6,73.2,30.32,East,90,2.0,3.0,99,0.00,,,0.00,meteohub,2013-01-09 15:09:00,
2013-01-09 10:14:00,74.1,73.2,30.32,NE,45,2.0,4.0,97,0.00,,,0.00,meteohub,2013-01-09 15:14:00,
2013-01-09 10:19:00,74.5,73.0,30.32,East,90,2.0,4.0,95,0.00,,,0.00,meteohub,2013-01-09 15:19:00,
2013-01-09 10:24:00,74.8,72.7,30.32,South,180,4.0,4.0,93,0.00,,,0.00,meteohub,2013-01-09 15:24:00,
2013-01-09 10:29:00,75.2,72.3,30.32,SW,225,2.0,4.0,91,0.00,,,0.00,meteohub,2013-01-09 15:29:00,
2013-01-09 10:34:00,75.6,72.5,30.32,East,90,4.0,5.0,90,0.00,,,0.00,meteohub,2013-01-09 15:34:00,
2013-01-09 10:39:00,75.6,72.1,30.32,SW,225,2.0,5.0,89,0.00,,,0.00,meteohub,2013-01-09 15:39:00,
2013-01-09 10:44:00,75.6,72.1,30.32,West,270,2.0,5.0,89,0.00,,,0.00,meteohub,2013-01-09 15:44:00,
2013-01-09 10:49:00,75.6,72.1,30.32,SSE,158,2.0,4.0,89,0.00,,,0.00,meteohub,2013-01-09 15:49:00,
2013-01-09 10:54:00,75.6,72.1,30.33,East,90,3.0,3.0,89,0.00,,,0.00,meteohub,2013-01-09 15:54:00,
2013-01-09 10:59:00,75.6,72.1,30.32,East,90,1.0,3.0,89,0.00,,,0.00,meteohub,2013-01-09 15:59:00,
2013-01-09 11:04:00,75.6,72.1,30.32,ESE,113,2.0,3.0,89,0.00,,,0.00,meteohub,2013-01-09 16:04:00,
2013-01-09 11:09:00,75.9,72.5,30.32,East,90,2.0,4.0,89,0.00,,,0.00,meteohub,2013-01-09 16:09:00,
2013-01-09 11:14:00,75.9,72.5,30.32,East,90,0.0,4.0,89,0.00,,,0.00,meteohub,2013-01-09 16:14:00,
2013-01-09 11:19:00,75.9,72.5,30.32,East,90,3.0,4.0,89,0.00,,,0.00,meteohub,2013-01-09 16:19:00,
2013-01-09 11:24:00,76.3,72.9,30.31,East,90,2.0,3.0,89,0.00,,,0.00,meteohub,2013-01-09 16:24:00,
2013-01-09 11:30:00,76.5,73.0,30.32,SE,135,1.0,3.0,89,0.00,,,0.00,meteohub,2013-01-09 16:30:00,
2013-01-09 11:35:00,76.8,73.4,30.31,East,90,2.0,3.0,89,0.00,,,0.00,meteohub,2013-01-09 16:35:00,
2013-01-09 11:40:00,77.2,73.0,30.31,NW,315,2.0,3.0,87,0.00,,,0.00,meteohub,2013-01-09 16:40:00,
2013-01-09 11:45:00,77.5,73.4,30.31,South,180,2.0,3.0,87,0.00,,,0.00,meteohub,2013-01-09 16:45:00,
2013-01-09 11:50:00,77.9,73.4,30.31,SE,135,2.0,3.0,86,0.00,,,0.00,meteohub,2013-01-09 16:50:00,
2013-01-09 11:55:00,78.3,73.4,30.31,East,90,2.0,3.0,85,0.00,,,0.00,meteohub,2013-01-09 16:55:00,
2013-01-09 12:00:00,78.3,73.0,30.30,South,180,4.0,4.0,84,0.00,,,0.00,meteohub,2013-01-09 17:00:00,
2013-01-09 12:05:00,78.1,72.9,30.30,SE,135,2.0,4.0,84,0.00,,,0.00,meteohub,2013-01-09 17:05:00,
2013-01-09 12:10:00,78.1,72.9,30.30,West,270,2.0,4.0,84,0.00,,,0.00,meteohub,2013-01-09 17:10:00,
2013-01-09 12:15:00,77.9,72.7,30.30,SE,135,4.0,4.0,84,0.00,,,0.00,meteohub,2013-01-09 17:15:00,
2013-01-09 12:20:00,77.7,72.9,30.30,East,90,3.0,4.0,85,0.00,,,0.00,meteohub,2013-01-09 17:20:00,
2013-01-09 12:25:00,77.5,73.4,30.30,NE,45,0.0,4.0,87,0.00,,,0.00,meteohub,2013-01-09 17:25:00,
2013-01-09 12:30:00,77.5,74.1,30.30,NE,45,0.0,4.0,89,0.00,,,0.00,meteohub,2013-01-09 17:30:00,
2013-01-09 12:35:00,77.5,74.1,30.29,NW,315,0.0,3.0,89,0.00,,,0.00,meteohub,2013-01-09 17:35:00,
2013-01-09 12:40:00,77.7,74.3,30.29,East,90,0.0,0.0,89,0.00,,,0.00,meteohub,2013-01-09 17:40:00,
2013-01-09 12:45:00,77.9,74.5,30.29,SE,135,0.0,0.0,89,0.00,,,0.00,meteohub,2013-01-09 17:45:00,
2013-01-09 12:50:00,77.9,74.1,30.29,NE,45,0.0,0.0,88,0.00,,,0.00,meteohub,2013-01-09 17:50:00,
2013-01-09 12:55:00,77.9,73.8,30.28,East,90,0.0,0.0,87,0.00,,,0.00,meteohub,2013-01-09 17:55:00,
2013-01-09 13:00:00,77.9,73.8,30.28,East,90,0.0,0.0,87,0.00,,,0.00,meteohub,2013-01-09 18:00:00,
2013-01-09 13:05:00,78.1,73.6,30.28,East,90,1.0,2.0,86,0.00,,,0.00,meteohub,2013-01-09 18:05:00,
2013-01-09 13:10:00,78.3,73.4,30.28,South,180,2.0,2.0,85,0.00,,,0.00,meteohub,2013-01-09 18:10:00,
2013-01-09 13:15:00,78.6,73.8,30.27,SE,135,2.0,2.0,85,0.00,,,0.00,meteohub,2013-01-09 18:15:00,
2013-01-09 13:20:00,78.8,72.9,30.27,East,90,2.0,3.0,82,0.00,,,0.00,meteohub,2013-01-09 18:20:00,
2013-01-09 13:25:00,79.3,73.0,30.27,East,90,2.0,3.0,81,0.00,,,0.00,meteohub,2013-01-09 18:25:00,
2013-01-09 13:31:00,79.7,72.7,30.27,SW,225,2.0,3.0,79,0.00,,,0.00,meteohub,2013-01-09 18:31:00,
2013-01-09 13:36:00,80.4,72.9,30.27,East,90,1.0,2.0,78,0.00,,,0.00,meteohub,2013-01-09 18:36:00,
2013-01-09 13:41:00,82.0,73.8,30.27,East,90,2.0,2.0,76,0.00,,,0.00,meteohub,2013-01-09 18:41:00,
2013-01-09 13:42:00,82.2,73.6,30.27,North,0,2.0,2.0,75,0.00,,,0.00,meteohub,2013-01-09 18:42:00,
2013-01-09 13:44:00,82.4,73.8,30.27,NE,45,2.0,2.0,75,0.00,,,0.00,meteohub,2013-01-09 18:44:00,
2013-01-09 13:45:00,82.4,73.2,30.27,SE,135,2.0,2.0,74,0.00,,,0.00,meteohub,2013-01-09 18:45:00,
2013-01-09 13:46:00,82.2,73.0,30.27,SE,135,2.0,2.0,74,0.00,,,0.00,meteohub,2013-01-09 18:46:00,
2013-01-09 13:49:00,82.0,72.9,30.27,North,0,2.0,2.0,74,0.00,,,0.00,meteohub,2013-01-09 18:49:00,
2013-01-09 13:50:00,81.9,72.7,30.26,East,90,1.0,2.0,74,0.00,,,0.00,meteohub,2013-01-09 18:50:00,
2013-01-09 13:51:00,82.0,72.9,30.27,NE,45,2.0,3.0,74,0.00,,,0.00,meteohub,2013-01-09 18:51:00,
2013-01-09 13:56:00,82.8,73.9,30.26,East,90,2.0,3.0,75,0.00,,,0.00,meteohub,2013-01-09 18:56:00,
2013-01-09 13:59:00,82.8,73.6,30.26,North,0,2.0,3.0,74,0.00,,,0.00,meteohub,2013-01-09 18:59:00,
2013-01-09 14:04:00,82.2,73.6,30.26,SE,135,2.0,4.0,75,0.00,,,0.00,meteohub,2013-01-09 19:04:00,
2013-01-09 14:09:00,81.9,73.6,30.26,NE,45,2.0,4.0,76,0.00,,,0.00,meteohub,2013-01-09 19:09:00,
2013-01-09 14:14:00,82.8,73.6,30.26,NE,45,3.0,4.0,74,0.00,,,0.00,meteohub,2013-01-09 19:14:00,
2013-01-09 14:19:00,83.5,73.6,30.26,South,180,4.0,4.0,72,0.00,,,0.00,meteohub,2013-01-09 19:19:00,
2013-01-09 14:24:00,83.3,73.4,30.26,East,90,3.0,4.0,72,0.00,,,0.00,meteohub,2013-01-09 19:24:00,
2013-01-09 14:29:00,82.2,72.7,30.26,East,90,2.0,4.0,73,0.00,,,0.00,meteohub,2013-01-09 19:29:00,
2013-01-09 14:35:00,81.3,72.7,30.26,East,90,2.0,4.0,75,0.00,,,0.00,meteohub,2013-01-09 19:35:00,
2013-01-09 14:40:00,81.3,73.0,30.26,NE,45,2.0,4.0,76,0.00,,,0.00,meteohub,2013-01-09 19:40:00,
2013-01-09 14:45:00,81.3,73.0,30.26,NE,45,2.0,3.0,76,0.00,,,0.00,meteohub,2013-01-09 19:45:00,
2013-01-09 14:50:00,81.5,73.2,30.26,East,90,4.0,4.0,76,0.00,,,0.00,meteohub,2013-01-09 19:50:00,
2013-01-09 14:55:00,81.3,73.0,30.26,SE,135,2.0,4.0,76,0.00,,,0.00,meteohub,2013-01-09 19:55:00,
2013-01-09 15:00:00,81.1,72.9,30.26,NE,45,2.0,4.0,76,0.00,,,0.00,meteohub,2013-01-09 20:00:00,
2013-01-09 15:05:00,81.0,72.7,30.26,NE,45,3.0,3.0,76,0.00,,,0.00,meteohub,2013-01-09 20:05:00,
2013-01-09 15:10:00,81.0,72.0,30.26,East,90,2.0,3.0,74,0.00,,,0.00,meteohub,2013-01-09 20:10:00,
2013-01-09 15:15:00,81.0,71.4,30.26,East,90,2.0,4.0,73,0.00,,,0.00,meteohub,2013-01-09 20:15:00,
2013-01-09 15:20:00,81.1,71.6,30.26,East,90,3.0,4.0,73,0.00,,,0.00,meteohub,2013-01-09 20:20:00,
2013-01-09 15:25:00,81.5,72.0,30.26,NE,45,3.0,4.0,73,0.00,,,0.00,meteohub,2013-01-09 20:25:00,
2013-01-09 15:30:00,81.7,72.1,30.26,NE,45,2.0,3.0,73,0.00,,,0.00,meteohub,2013-01-09 20:30:00,
2013-01-09 15:35:00,81.3,71.8,30.26,North,0,2.0,3.0,73,0.00,,,0.00,meteohub,2013-01-09 20:35:00,
2013-01-09 15:40:00,81.3,72.3,30.26,East,90,2.0,3.0,74,0.00,,,0.00,meteohub,2013-01-09 20:40:00,
2013-01-09 15:46:00,81.7,72.5,30.26,NE,45,2.0,3.0,74,0.00,,,0.00,meteohub,2013-01-09 20:46:00,
2013-01-09 15:51:00,81.9,72.7,30.27,East,90,1.0,3.0,74,0.00,,,0.00,meteohub,2013-01-09 20:51:00,
2013-01-09 15:56:00,81.9,72.7,30.26,NE,45,3.0,3.0,74,0.00,,,0.00,meteohub,2013-01-09 20:56:00,
2013-01-09 16:01:00,81.5,72.3,30.27,SE,135,3.0,4.0,74,0.00,,,0.00,meteohub,2013-01-09 21:01:00,
2013-01-09 16:06:00,81.3,72.3,30.27,North,0,2.0,4.0,74,0.00,,,0.00,meteohub,2013-01-09 21:06:00,
2013-01-09 16:11:00,81.1,72.1,30.27,East,90,2.0,4.0,74,0.00,,,0.00,meteohub,2013-01-09 21:11:00,
2013-01-09 16:16:00,81.0,72.3,30.27,NE,45,2.0,3.0,75,0.00,,,0.00,meteohub,2013-01-09 21:16:00,
2013-01-09 16:21:00,81.0,72.3,30.27,SW,225,1.0,3.0,75,0.00,,,0.00,meteohub,2013-01-09 21:21:00,
2013-01-09 16:26:00,80.8,72.1,30.27,SE,135,2.0,3.0,75,0.00,,,0.00,meteohub,2013-01-09 21:26:00,
2013-01-09 16:31:00,80.6,72.0,30.27,East,90,2.0,3.0,75,0.00,,,0.00,meteohub,2013-01-09 21:31:00,
2013-01-09 16:36:00,80.4,72.1,30.27,NE,45,2.0,3.0,76,0.00,,,0.00,meteohub,2013-01-09 21:36:00,
2013-01-09 16:41:00,80.4,72.1,30.27,ENE,68,4.0,4.0,76,0.00,,,0.00,meteohub,2013-01-09 21:41:00,
2013-01-09 16:46:00,80.2,72.3,30.27,East,90,2.0,4.0,77,0.00,,,0.00,meteohub,2013-01-09 21:46:00,
2013-01-09 16:51:00,79.9,72.0,30.27,NE,45,2.0,4.0,77,0.00,,,0.00,meteohub,2013-01-09 21:51:00,
2013-01-09 16:56:00,79.5,71.6,30.27,NE,45,3.0,4.0,77,0.00,,,0.00,meteohub,2013-01-09 21:56:00,
2013-01-09 17:01:00,79.2,71.8,30.27,NE,45,2.0,3.0,78,0.00,,,0.00,meteohub,2013-01-09 22:01:00,
2013-01-09 17:06:00,78.8,71.8,30.27,NNW,338,0.0,3.0,79,0.00,,,0.00,meteohub,2013-01-09 22:06:00,
2013-01-09 17:11:00,78.4,71.8,30.27,East,90,3.0,3.0,80,0.00,,,0.00,meteohub,2013-01-09 22:11:00,
2013-01-09 17:17:00,78.1,71.8,30.27,ENE,68,0.0,4.0,81,0.00,,,0.00,meteohub,2013-01-09 22:17:00,
2013-01-09 17:22:00,77.9,72.0,30.27,East,90,0.0,4.0,82,0.00,,,0.00,meteohub,2013-01-09 22:22:00,
2013-01-09 17:27:00,77.7,72.1,30.27,NE,45,2.0,4.0,83,0.00,,,0.00,meteohub,2013-01-09 22:27:00,
2013-01-09 17:32:00,77.4,71.8,30.27,SE,135,2.0,2.0,83,0.00,,,0.00,meteohub,2013-01-09 22:32:00,
2013-01-09 17:37:00,77.2,71.6,30.27,East,90,2.0,2.0,83,0.00,,,0.00,meteohub,2013-01-09 22:37:00,
2013-01-09 17:42:00,77.0,71.4,30.27,East,90,0.0,2.0,83,0.00,,,0.00,meteohub,2013-01-09 22:42:00,
2013-01-09 17:47:00,76.8,71.6,30.27,ENE,68,2.0,2.0,84,0.00,,,0.00,meteohub,2013-01-09 22:47:00,
2013-01-09 17:52:00,76.5,71.2,30.28,NE,45,3.0,3.0,84,0.00,,,0.00,meteohub,2013-01-09 22:52:00,
2013-01-09 17:57:00,76.1,71.2,30.27,East,90,2.0,3.0,85,0.00,,,0.00,meteohub,2013-01-09 22:57:00,
2013-01-09 18:02:00,75.7,70.9,30.28,SE,135,2.0,3.0,85,0.00,,,0.00,meteohub,2013-01-09 23:02:00,
2013-01-09 18:07:00,75.7,70.9,30.28,East,90,2.0,3.0,85,0.00,,,0.00,meteohub,2013-01-09 23:07:00,
2013-01-09 18:12:00,75.6,70.7,30.29,East,90,2.0,2.0,85,0.00,,,0.00,meteohub,2013-01-09 23:12:00,
2013-01-09 18:17:00,75.4,70.9,30.29,East,90,0.0,2.0,86,0.00,,,0.00,meteohub,2013-01-09 23:17:00,
2013-01-09 18:22:00,75.2,70.7,30.29,East,90,2.0,2.0,86,0.00,,,0.00,meteohub,2013-01-09 23:22:00,
2013-01-09 18:27:00,75.0,70.9,30.29,East,90,2.0,2.0,87,0.00,,,0.00,meteohub,2013-01-09 23:27:00,
2013-01-09 18:32:00,74.8,70.7,30.30,South,180,2.0,2.0,87,0.00,,,0.00,meteohub,2013-01-09 23:32:00,
2013-01-09 18:37:00,74.5,70.7,30.29,East,90,2.0,2.0,88,0.00,,,0.00,meteohub,2013-01-09 23:37:00,
2013-01-09 18:42:00,74.3,70.5,30.30,SE,135,0.0,2.0,88,0.00,,,0.00,meteohub,2013-01-09 23:42:00,
2013-01-09 18:47:00,74.1,70.3,30.30,East,90,2.0,2.0,88,0.00,,,0.00,meteohub,2013-01-09 23:47:00,
2013-01-09 18:52:00,73.9,70.5,30.30,SE,135,1.0,2.0,89,0.00,,,0.00,meteohub,2013-01-09 23:52:00,
2013-01-09 18:57:00,73.8,70.3,30.29,SW,225,1.0,2.0,89,0.00,,,0.00,meteohub,2013-01-09 23:57:00,
2013-01-09 19:02:00,73.8,70.3,30.30,East,90,2.0,2.0,89,0.00,,,0.00,meteohub,2013-01-10 00:02:00,
2013-01-09 19:07:00,73.6,70.2,30.30,East,90,2.0,2.0,89,0.00,,,0.00,meteohub,2013-01-10 00:07:00,
2013-01-09 19:12:00,73.4,70.3,30.30,SE,135,2.0,2.0,90,0.00,,,0.00,meteohub,2013-01-10 00:12:00,
2013-01-09 19:17:00,73.4,70.3,30.30,ESE,113,2.0,2.0,90,0.00,,,0.00,meteohub,2013-01-10 00:17:00,
2013-01-09 19:22:00,73.4,70.3,30.31,East,90,2.0,2.0,90,0.00,,,0.00,meteohub,2013-01-10 00:22:00,
2013-01-09 19:27:00,73.2,70.2,30.30,East,90,2.0,2.0,90,0.00,,,0.00,meteohub,2013-01-10 00:27:00,
2013-01-09 19:32:00,73.2,70.2,30.31,East,90,1.0,2.0,90,0.00,,,0.00,meteohub,2013-01-10 00:32:00,
2013-01-09 19:37:00,73.0,70.0,30.31,East,90,0.0,2.0,90,0.00,,,0.00,meteohub,2013-01-10 00:37:00,
2013-01-09 19:42:00,72.7,69.6,30.31,East,90,0.0,2.0,90,0.00,,,0.00,meteohub,2013-01-10 00:42:00,
2013-01-09 19:47:00,72.5,69.8,30.31,East,90,0.0,2.0,91,0.00,,,0.00,meteohub,2013-01-10 00:47:00,
2013-01-09 19:52:00,72.5,69.8,30.31,East,90,0.0,1.0,91,0.00,,,0.00,meteohub,2013-01-10 00:52:00,
2013-01-09 19:57:00,72.1,69.4,30.31,East,90,0.0,1.0,91,0.00,,,0.00,meteohub,2013-01-10 00:57:00,
2013-01-09 20:02:00,72.0,69.3,30.32,East,90,0.0,1.0,91,0.00,,,0.00,meteohub,2013-01-10 01:02:00,
2013-01-09 20:07:00,71.8,69.1,30.31,NE,45,0.0,1.0,91,0.00,,,0.00,meteohub,2013-01-10 01:07:00,
2013-01-09 20:12:00,71.8,69.3,30.32,East,90,0.0,1.0,92,0.00,,,0.00,meteohub,2013-01-10 01:12:00,
2013-01-09 20:17:00,71.6,69.1,30.32,East,90,0.0,0.0,92,0.00,,,0.00,meteohub,2013-01-10 01:17:00,
2013-01-09 20:22:00,71.4,69.3,30.32,East,90,0.0,0.0,93,0.00,,,0.00,meteohub,2013-01-10 01:22:00,
2013-01-09 20:27:00,71.2,69.1,30.32,East,90,0.0,0.0,93,0.00,,,0.00,meteohub,2013-01-10 01:27:00,
2013-01-09 20:32:00,71.1,69.3,30.32,East,90,0.0,0.0,94,0.00,,,0.00,meteohub,2013-01-10 01:32:00,
2013-01-09 20:37:00,70.9,69.1,30.32,East,90,0.0,0.0,94,0.00,,,0.00,meteohub,2013-01-10 01:37:00,
2013-01-09 20:42:00,70.9,69.1,30.32,East,90,0.0,0.0,94,0.00,,,0.00,meteohub,2013-01-10 01:42:00,
2013-01-09 20:47:00,70.7,68.9,30.32,East,90,0.0,0.0,94,0.00,,,0.00,meteohub,2013-01-10 01:47:00,
2013-01-09 20:52:00,70.7,68.9,30.32,East,90,0.0,0.0,94,0.00,,,0.00,meteohub,2013-01-10 01:52:00,
2013-01-09 20:57:00,70.7,69.3,30.32,SE,135,0.0,0.0,95,0.00,,,0.00,meteohub,2013-01-10 01:57:00,
2013-01-09 21:02:00,70.5,69.1,30.32,South,180,2.0,0.0,95,0.00,,,0.00,meteohub,2013-01-10 02:02:00,
2013-01-09 21:07:00,70.5,69.1,30.32,East,90,2.0,2.0,95,0.00,,,0.00,meteohub,2013-01-10 02:07:00,
2013-01-09 21:12:00,70.5,69.1,30.32,East,90,1.0,2.0,95,0.00,,,0.00,meteohub,2013-01-10 02:12:00,
2013-01-09 21:17:00,70.3,68.9,30.32,East,90,0.0,2.0,95,0.00,,,0.00,meteohub,2013-01-10 02:17:00,
2013-01-09 21:22:00,70.3,69.1,30.32,East,90,0.0,2.0,96,0.00,,,0.00,meteohub,2013-01-10 02:22:00,
2013-01-09 21:27:00,70.3,69.1,30.32,East,90,0.0,2.0,96,0.00,,,0.00,meteohub,2013-01-10 02:27:00,
2013-01-09 21:32:00,70.2,68.9,30.32,East,90,0.0,2.0,96,0.00,,,0.00,meteohub,2013-01-10 02:32:00,
2013-01-09 21:37:00,70.0,68.7,30.32,East,90,0.0,0.0,96,0.00,,,0.00,meteohub,2013-01-10 02:37:00,
2013-01-09 21:42:00,70.0,68.7,30.32,East,90,0.0,0.0,96,0.00,,,0.00,meteohub,2013-01-10 02:42:00,
2013-01-09 21:47:00,69.8,68.5,30.33,SE,135,0.0,0.0,96,0.00,,,0.00,meteohub,2013-01-10 02:47:00,
2013-01-09 21:52:00,69.8,68.5,30.33,SE,135,0.0,0.0,96,0.00,,,0.00,meteohub,2013-01-10 02:52:00,
2013-01-09 21:57:00,69.6,68.7,30.33,East,90,0.0,0.0,97,0.00,,,0.00,meteohub,2013-01-10 02:57:00,
2013-01-09 22:02:00,69.6,68.7,30.33,NE,45,0.0,0.0,97,0.00,,,0.00,meteohub,2013-01-10 03:02:00,
2013-01-09 22:07:00,69.4,68.9,30.33,NE,45,0.0,0.0,98,0.00,,,0.00,meteohub,2013-01-10 03:07:00,
2013-01-09 22:12:00,69.4,68.9,30.34,East,90,0.0,0.0,98,0.00,,,0.00,meteohub,2013-01-10 03:12:00,
2013-01-09 22:17:00,69.4,68.9,30.33,East,90,0.0,0.0,98,0.00,,,0.00,meteohub,2013-01-10 03:17:00,
2013-01-09 22:22:00,69.4,68.9,30.34,East,90,0.0,0.0,98,0.00,,,0.00,meteohub,2013-01-10 03:22:00,
2013-01-09 22:28:00,69.4,68.9,30.34,NE,45,0.0,0.0,98,0.00,,,0.00,meteohub,2013-01-10 03:28:00,
2013-01-09 22:33:00,69.3,68.7,30.34,NE,45,0.0,0.0,98,0.00,,,0.00,meteohub,2013-01-10 03:33:00,
2013-01-09 22:38:00,69.3,68.9,30.34,NE,45,0.0,0.0,99,0.00,,,0.00,meteohub,2013-01-10 03:38:00,
2013-01-09 22:43:00,69.1,68.7,30.34,NE,45,0.0,0.0,99,0.00,,,0.00,meteohub,2013-01-10 03:43:00,
2013-01-09 22:48:00,69.1,68.7,30.34,SE,135,0.0,0.0,99,0.00,,,0.00,meteohub,2013-01-10 03:48:00,
2013-01-09 22:53:00,69.1,68.7,30.34,SE,135,0.0,0.0,99,0.00,,,0.00,meteohub,2013-01-10 03:53:00,
2013-01-09 22:58:00,69.1,68.7,30.34,NE,45,0.0,0.0,99,0.00,,,0.00,meteohub,2013-01-10 03:58:00,
2013-01-09 23:03:00,69.1,68.7,30.34,NE,45,0.0,0.0,99,0.00,,,0.00,meteohub,2013-01-10 04:03:00,
2013-01-09 23:08:00,69.1,68.7,30.34,SE,135,0.0,0.0,99,0.00,,,0.00,meteohub,2013-01-10 04:08:00,
2013-01-09 23:13:00,69.1,68.7,30.34,East,90,0.0,0.0,99,0.00,,,0.00,meteohub,2013-01-10 04:13:00,
2013-01-09 23:18:00,69.1,68.7,30.34,East,90,0.0,0.0,99,0.00,,,0.00,meteohub,2013-01-10 04:18:00,
2013-01-09 23:23:00,68.9,68.5,30.33,East,90,0.0,0.0,99,0.00,,,0.00,meteohub,2013-01-10 04:23:00,
2013-01-09 23:28:00,68.9,68.5,30.34,East,90,0.0,0.0,99,0.00,,,0.00,meteohub,2013-01-10 04:28:00,
2013-01-09 23:33:00,69.1,68.7,30.34,SE,135,0.0,0.0,99,0.00,,,0.00,meteohub,2013-01-10 04:33:00,
2013-01-09 23:38:00,69.1,68.7,30.34,East,90,1.0,1.0,99,0.00,,,0.00,meteohub,2013-01-10 04:38:00,
2013-01-09 23:43:00,69.1,68.7,30.33,East,90,0.0,2.0,99,0.00,,,0.00,meteohub,2013-01-10 04:43:00,
2013-01-09 23:48:00,69.1,68.7,30.34,East,90,0.0,2.0,99,0.00,,,0.00,meteohub,2013-01-10 04:48:00,
2013-01-09 23:53:00,69.1,68.7,30.34,South,180,0.0,2.0,99,0.00,,,0.00,meteohub,2013-01-10 04:53:00,
2013-01-09 23:58:00,69.1,68.7,30.34,NE,45,2.0,2.0,99,0.00,,,0.00,meteohub,2013-01-10 04:58:00,